NOAA 16 DEB, 42425

Orbit data source: Space-Track

NOAA 16 DEB, 42425 is space debris in SSO originally from a launch on Thu, 21 Sep 2000 UTC launched from the Air Force Western Test Range (AFWTR). Debris objects in space refer to the collection of defunct objects orbiting the Earth. Examples of debris include non-operational satellites, rocket bodies, and fragments generated from explosions, collisions, or faulty payload assembly.

Loading next visibility...
Identifier
42425, 2000-055TV
Orbit
SSO
Country
Flag of USUS
Related business
Manufacturer
Unknown
Mission
Spacecraft
Bus & Motor
Unknown
Mass
Unknown
Launch date (UTC)
2000-09-21 (25 years ago)
Launch vehicle
Unknown
Launch site
Air Force Western Test Range (AFWTR)
Object type
Payload
Rocket body
Debris
Shape & HBR
Unknown shape, 0.1 m
Radar Cross Section
Small (<0.1 m²)

Expand to show TLE details & history
Last TLE update: 2 days ago

TLE from 2 days ago
0 NOAA 16 DEB
1 42425U 00055TV  25339.33355347  .00005935  00000-0  29037-2 0  9997
2 42425  98.7114  15.1683 0024364  48.3229 312.0027 14.18090415479255
Epoch: 2025-12-05T08:00Z
TLE epoch observation values (Epoch: 2025-12-05T08:00:19.019Z)
Latitude
0.00001°
Longitude
-179.28809°
Altitude
822.996 km
Speed
7.448 km/s
True Right ascension
01h 00m 40s
True Declination
0° 00' 00"
Sunlit
Object was in full shadow at epoch
Visualization orbit readout
Latitude
Unknown
Longitude
Unknown
Altitude
Unknown
Speed
Unknown
Apparent Right ascension
Unknown
Apparent Declination
Unknown
Sunlit
N/A
Visualization observer readout
Local Sidereal Time
00:11:36
Azimuth
Unknown
Elevation
Unknown
Doppler factor
Unknown
Orbital elements
Apogee altitude
846.539 km
Perigee altitude
811.42 km
Semi-major axis
7,207.116 km
Eccentricity
0.00244
Inclination
98.7114°
RAAN
15.1683°
Arg. of periapsis
48.3229°
True anomaly
311.79481°
Mean anomaly
312.0027°
Eccentric anomaly
311.8988°
Mean motion
3.54732 °/min
Orbital period
101.48 mins
BSTAR
0.0029037
Loading maneuver chart data...
Computing Atmospheric mass density...
Loading historical data...
Loading historical data...
Loading historical data...
Loading historical data...
Loading historical data...
Loading historical data...
Loading historical data...

Documentation

Showing up to 5 results
|